sat.trackr.live / text

‹ back to catalog

MOMENTUS-X1

NORAD 44408 · 2019-038Y

PAYLOAD ACTIVE UNKNOWN

§ Identity

Operator
Country
US
Launch date
2019-07-05
Launch site
VOSTO
Launch vehicle
Mass (kg)
RCS (m²)

External: N2YO · Heavens-Above · Gunter

§ Orbital elements

Epoch: 2026-09-19T09:16:09.482304Z

Period
91.38 min
Inclination
97.6630°
Eccentricity
0.0005165
Mean motion
15.75838369 rev/d
Perigee alt
338.8 km
Apogee alt
345.7 km
Semi-major
6,720.4 km
B*
4.0120e-4
RAAN
316.9697°
Arg perigee
32.4612°
Mean anomaly
327.6969°
Rev number
40,134

§ Raw data

MOMENTUS-X11 44408U 19038Y   26262.38622086  .00061907  00000+0  40120-3 0  99962 44408  97.6630 316.9697 0005165  32.4612 327.6969 15.75838369401348

JSON: /api/v1/satellites/44408 · /tle

For live sub-satellite position, see the globe view (requires WebGL).

§ Visibility from observer

Set your observer location to see the next 7 days of passes ≥ 10°. The values pass through the URL so the page stays shareable.

No JS? Fill the form by hand. The geolocation button needs JavaScript.

§ Radio — SatNOGS DB

ModeDescriptionDownlinkUplink
FM Mode U - Unknown 400.500 MHz

1 transmitter · refreshed weekly from db.satnogs.org